Location: Unspecified
(0.0000°N, 0.0000°E)
Time: 11:36:39
(UTC+00:00)

Vanguard 1 - Pass Details

Date: 21 November 2019
Orbit: 652 x 3831 km, 34.3° (Epoch: 07 December)

Event Time Altitude Azimuth Distance (km) Brightness Sun altitude
Rises 00:41:42 0° 224° (SW) 6,442 14.3 -65.9°
Reaches altitude 10° 00:48:00 10° 207° (SSW) 5,970 14.1 -65.0°
Maximum altitude 01:00:59 20° 166° (SSE) 5,901 14.1 -62.9°
Drops below altitude 10° 01:15:50 10° 126° (SE) 6,923 14.7 -60.3°
Sets 01:24:06 0° 110° (ESE) 7,762 15.1 -58.8°
